Location: Hurstbourne Priors
(51.2000°N, 1.3667°W)
Time: 22:39:42
(UTC+00:00)

Transit 4A - Pass Details

Date: 27 April 2021
Orbit: 871 x 974 km, 66.8° (Epoch: 16 May)

Event Time Altitude Azimuth Distance (km) Brightness Sun altitude
Rises 20:49:32 0° 176° (S) 3,618 - -12.3°
Reaches altitude 10° 20:52:28 10° 164° (SSE) 2,662 - -12.7°
Exits shadow 20:53:23 14° 159° (SSE) 2,398 9.5 -12.8°
Maximum altitude 20:57:30 27° 110° (ESE) 1,724 8.8 -13.2°
Drops below altitude 10° 21:02:27 10° 55° (NE) 2,618 10.2 -13.8°
Sets 21:05:18 0° 44° (NE) 3,546 11.0 -14.1°
